Погода в Полоцке

Беларусь     55°29′08″N   28°46′06″E
темп.,
°C
ветер,
м/с
пор.,
м/с
влажн.,
%
обл.,
%
осадки,
мм/ч
давл.,
гПа
погр.,
м
12 апреля, пн
пн1200:00+9ююв3128027 0.0 1027255
03:00+7ююв3118099 0.0 1027227
06:00+6юв3108199 0.0 1027222
09:00+10ююв4106623 0.0 1027426
12:00+14ююв69461 0.0 10261268
15:00+16ююв68390 0.0 10241593
18:00+15ююв48440 0.0 10221561
21:00+10юв41162100 0.0 1022266
13 апреля, вт
вт1300:00+8ююв4118091 0.0 1022296
03:00+6ююв38932 0.0 1022185
06:00+5ююв25945 0.0 1021103
09:00+10ююв356922 0.0 1021313
12:00+15ю3449100 0.0 1020895
15:00+17ю23395 0.0 10201585
18:00+16з21435 0.0 10191006
21:00+8ссз4108853 0.0 1020398
14 апреля, ср
ср1400:00+6ссз4988100 0.4 1020336
03:00+5ссз51091100 3.6 1019397
06:00+4с51193100 6.3 1018456
09:00+4с51192100 10.4 1019475
12:00+3с51092100 1.9 1019454
15:00+3ссв51093100 2.5 1019415
18:00+3с4994100 1.0 1019391
21:00+3ссв4994100 1.3 1020413
15 апреля, чт
чт1500:00+3ссв4995100 0.0 1019381
03:00+3ссв41096100 0.0 1018423
06:00+4с51293100 0.3 1018503
09:00+3с51292100 2.7 1018514
12:00+3с51193100 4.0 1018589
15:00+3с41194100 7.3 1019679
18:00+3ссв51393100 1.7 1019718
21:00+3ссв51296100 2.6 1020733
16 апреля, пт
пт1600:00+3св51296100 0.6 1020650
03:00+4св51195100 0.6 1020580
06:00+4св51295100 0.0 1021591
09:00+4св61392100 0.1 1023660
12:00+6св61283100 0.0 1024817
15:00+9св6116888 0.0 10251221
18:00+10св611542 0.0 10261418
21:00+6св513610 0.0 1028626